Wetterdaten: Freitag, 31.05.2013
Datum Zeit Temp. I. Temp. A. Boden 5 cm Feuchte A. Sonne Luftdruck Regen Wind Sonnenschein
31.05.2013 00:00 21,5 C 8,8 C 9,2 C 99 % 0 % 995 hPa 0,0 l/m 20,4 km/h (4 Bft) 0 min
31.05.2013 00:03 21,5 C 8,8 C 9,2 C 99 % 0 % 995 hPa 0,0 l/m 19,6 km/h (3 Bft) 0 min
31.05.2013 00:06 21,5 C 8,8 C 9,2 C 99 % 0 % 995 hPa 0,0 l/m 23,3 km/h (4 Bft) 0 min
31.05.2013 00:09 21,5 C 8,8 C 9,2 C 99 % 0 % 995 hPa 0,0 l/m 23,3 km/h (4 Bft) 0 min
31.05.2013 00:12 21,5 C 8,8 C 9,2 C 99 % 0 % 995 hPa 0,0 l/m 23,3 km/h (4 Bft) 0 min
31.05.2013 00:15 21,5 C 8,7 C 9,2 C 99 % 0 % 995 hPa 0,0 l/m 12,9 km/h (3 Bft) 0 min
31.05.2013 00:18 21,5 C 8,7 C 9,2 C 99 % 0 % 995 hPa 0,3 l/m 20,5 km/h (4 Bft) 0 min
31.05.2013 00:21 21,5 C 8,7 C 9,1 C 99 % 0 % 995 hPa 0,0 l/m 17,5 km/h (3 Bft) 0 min
31.05.2013 00:24 21,5 C 8,7 C 9,1 C 99 % 0 % 995 hPa 0,3 l/m 22,6 km/h (4 Bft) 0 min
31.05.2013 00:27 21,5 C 8,7 C 9,1 C 99 % 0 % 995 hPa 0,0 l/m 16,3 km/h (3 Bft) 0 min
31.05.2013 00:30 21,5 C 8,7 C 9,0 C 99 % 0 % 995 hPa 0,3 l/m 13,5 km/h (3 Bft) 0 min
31.05.2013 00:33 21,4 C 8,7 C 9,0 C 99 % 0 % 995 hPa 0,0 l/m 16,0 km/h (3 Bft) 0 min
31.05.2013 00:36 21,4 C 8,7 C 9,0 C 99 % 0 % 995 hPa 0,0 l/m 20,5 km/h (4 Bft) 0 min
31.05.2013 00:39 21,4 C 8,6 C 9,0 C 99 % 0 % 995 hPa 0,3 l/m 17,1 km/h (3 Bft) 0 min
31.05.2013 00:42 21,4 C 8,6 C 9,0 C 99 % 0 % 995 hPa 0,0 l/m 16,7 km/h (3 Bft) 0 min
31.05.2013 00:45 21,4 C 8,6 C 9,0 C 99 % 0 % 995 hPa 0,3 l/m 13,5 km/h (3 Bft) 0 min
31.05.2013 00:48 21,4 C 8,6 C 9,0 C 99 % 0 % 995 hPa 0,0 l/m 18,6 km/h (3 Bft) 0 min
31.05.2013 00:51 21,4 C 8,6 C 8,9 C 99 % 0 % 994 hPa 0,0 l/m 25,0 km/h (4 Bft) 0 min
31.05.2013 00:54 21,4 C 8,6 C 9,0 C 99 % 0 % 994 hPa 0,3 l/m 16,7 km/h (3 Bft) 0 min
31.05.2013 00:57 21,4 C 8,6 C 9,0 C 99 % 0 % 994 hPa 0,0 l/m 21,0 km/h (4 Bft) 0 min
31.05.2013 01:00 21,4 C 8,6 C 9,0 C 99 % 0 % 994 hPa 0,3 l/m 21,0 km/h (4 Bft) 0 min
31.05.2013 01:03 21,4 C 8,6 C 9,0 C 99 % 0 % 994 hPa 0,0 l/m 23,5 km/h (4 Bft) 0 min
31.05.2013 01:06 21,4 C 8,6 C 9,0 C 99 % 0 % 994 hPa 0,0 l/m 18,4 km/h (3 Bft) 0 min
31.05.2013 01:09 21,4 C 8,6 C 9,0 C 99 % 0 % 994 hPa 0,3 l/m 16,4 km/h (3 Bft) 0 min
31.05.2013 01:12 21,4 C 8,6 C 9,0 C 99 % 0 % 994 hPa 0,0 l/m 15,1 km/h (3 Bft) 0 min
31.05.2013 01:15 21,4 C 8,6 C 9,0 C 99 % 0 % 994 hPa 0,0 l/m 17,1 km/h (3 Bft) 0 min
31.05.2013 01:18 21,4 C 8,6 C 9,0 C 99 % 0 % 994 hPa 0,3 l/m 15,4 km/h (3 Bft) 0 min
31.05.2013 01:21 21,4 C 8,6 C 9,0 C 99 % 0 % 994 hPa 0,3 l/m 15,1 km/h (3 Bft) 0 min
31.05.2013 01:24 21,4 C 8,6 C 9,0 C 99 % 0 % 994 hPa 0,0 l/m 16,4 km/h (3 Bft) 0 min
31.05.2013 01:27 21,4 C 8,6 C 9,0 C 99 % 0 % 994 hPa 0,0 l/m 18,1 km/h (3 Bft) 0 min
31.05.2013 01:30 21,4 C 8,6 C 9,0 C 99 % 0 % 994 hPa 0,0 l/m 13,6 km/h (3 Bft) 0 min
31.05.2013 01:33 21,4 C 8,6 C 9,0 C 99 % 0 % 994 hPa 0,3 l/m 13,6 km/h (3 Bft) 0 min
31.05.2013 01:36 21,4 C 8,6 C 9,0 C 99 % 0 % 994 hPa 0,3 l/m 15,3 km/h (3 Bft) 0 min
31.05.2013 01:39 21,4 C 8,6 C 9,0 C 99 % 0 % 994 hPa 0,0 l/m 9,5 km/h (2 Bft) 0 min
31.05.2013 01:42 21,4 C 8,6 C 9,0 C 99 % 0 % 994 hPa 0,0 l/m 14,0 km/h (3 Bft) 0 min
31.05.2013 01:45 21,4 C 8,6 C 9,0 C 99 % 0 % 994 hPa 0,0 l/m 13,3 km/h (3 Bft) 0 min
31.05.2013 01:48 21,3 C 8,6 C 9,0 C 99 % 0 % 994 hPa 0,3 l/m 14,3 km/h (3 Bft) 0 min
31.05.2013 01:51 21,3 C 8,6 C 9,0 C 99 % 0 % 994 hPa 0,0 l/m 14,3 km/h (3 Bft) 0 min
31.05.2013 01:54 21,4 C 8,6 C 9,0 C 99 % 0 % 994 hPa 0,0 l/m 14,3 km/h (3 Bft) 0 min
31.05.2013 01:57 21,3 C 8,6 C 9,0 C 99 % 0 % 994 hPa 0,0 l/m 7,5 km/h (2 Bft) 0 min
31.05.2013 02:00 21,4 C 8,6 C 9,0 C 99 % 0 % 994 hPa 0,3 l/m 7,4 km/h (2 Bft) 0 min
31.05.2013 02:03 21,4 C 8,6 C 9,0 C 99 % 0 % 994 hPa 0,0 l/m 8,9 km/h (2 Bft) 0 min
31.05.2013 02:06 21,3 C 8,6 C 9,1 C 99 % 0 % 994 hPa 0,0 l/m 10,0 km/h (2 Bft) 0 min
31.05.2013 02:09 21,4 C 8,6 C 9,1 C 99 % 0 % 994 hPa 0,0 l/m 8,8 km/h (2 Bft) 0 min
31.05.2013 02:12 21,3 C 8,6 C 9,1 C 99 % 0 % 994 hPa 0,0 l/m 13,5 km/h (3 Bft) 0 min
31.05.2013 02:15 21,3 C 8,6 C 9,1 C 99 % 0 % 994 hPa 0,0 l/m 15,6 km/h (3 Bft) 0 min
31.05.2013 02:18 21,3 C 8,6 C 9,1 C 99 % 0 % 994 hPa 0,0 l/m 15,6 km/h (3 Bft) 0 min
31.05.2013 02:21 21,3 C 8,6 C 9,1 C 99 % 0 % 994 hPa 0,3 l/m 14,1 km/h (3 Bft) 0 min
31.05.2013 02:24 21,3 C 8,7 C 9,1 C 99 % 0 % 994 hPa 0,0 l/m 16,0 km/h (3 Bft) 0 min
31.05.2013 02:27 21,3 C 8,7 C 9,1 C 99 % 0 % 994 hPa 0,0 l/m 10,6 km/h (2 Bft) 0 min
31.05.2013 02:30 21,3 C 8,7 C 9,1 C 99 % 0 % 994 hPa 0,3 l/m 17,2 km/h (3 Bft) 0 min
31.05.2013 02:33 21,3 C 8,6 C 9,1 C 99 % 0 % 994 hPa 0,0 l/m 16,7 km/h (3 Bft) 0 min
31.05.2013 02:36 21,3 C 8,7 C 9,1 C 99 % 0 % 994 hPa 0,0 l/m 10,0 km/h (2 Bft) 0 min
31.05.2013 02:39 21,3 C 8,6 C 9,1 C 99 % 0 % 994 hPa 0,0 l/m 12,8 km/h (3 Bft) 0 min
31.05.2013 02:42 21,3 C 8,7 C 9,1 C 99 % 0 % 994 hPa 0,0 l/m 11,1 km/h (2 Bft) 0 min
31.05.2013 02:45 21,3 C 8,7 C 9,1 C 99 % 0 % 994 hPa 0,3 l/m 11,6 km/h (2 Bft) 0 min
31.05.2013 02:48 21,3 C 8,7 C 9,1 C 99 % 0 % 994 hPa 0,0 l/m 9,6 km/h (2 Bft) 0 min
31.05.2013 02:51 21,3 C 8,6 C 9,1 C 99 % 0 % 994 hPa 0,0 l/m 13,8 km/h (3 Bft) 0 min
31.05.2013 02:54 21,3 C 8,6 C 9,1 C 99 % 0 % 994 hPa 0,0 l/m 18,5 km/h (3 Bft) 0 min
31.05.2013 02:57 21,3 C 8,6 C 9,1 C 99 % 0 % 994 hPa 0,3 l/m 13,9 km/h (3 Bft) 0 min
31.05.2013 03:00 21,3 C 8,6 C 9,1 C 99 % 0 % 993 hPa 0,0 l/m 14,1 km/h (3 Bft) 0 min
31.05.2013 03:03 21,3 C 8,6 C 9,1 C 99 % 0 % 993 hPa 0,0 l/m 14,1 km/h (3 Bft) 0 min
31.05.2013 03:06 21,3 C 8,6 C 9,1 C 99 % 0 % 993 hPa 0,0 l/m 15,0 km/h (3 Bft) 0 min
31.05.2013 03:09 21,3 C 8,6 C 9,1 C 99 % 0 % 993 hPa 0,0 l/m 14,3 km/h (3 Bft) 0 min
31.05.2013 03:12 21,3 C 8,6 C 9,1 C 99 % 0 % 993 hPa 0,3 l/m 13,0 km/h (3 Bft) 0 min
31.05.2013 03:15 21,3 C 8,6 C 9,1 C 99 % 0 % 993 hPa 0,0 l/m 13,0 km/h (3 Bft) 0 min
31.05.2013 03:18 21,2 C 8,6 C 9,1 C 99 % 0 % 993 hPa 0,0 l/m 17,0 km/h (3 Bft) 0 min
31.05.2013 03:21 21,3 C 8,6 C 9,1 C 99 % 0 % 993 hPa 0,0 l/m 15,4 km/h (3 Bft) 0 min
31.05.2013 03:24 21,2 C 8,6 C 9,1 C 99 % 0 % 993 hPa 0,3 l/m 15,4 km/h (3 Bft) 0 min
31.05.2013 03:27 21,3 C 8,6 C 9,1 C 99 % 0 % 993 hPa 0,0 l/m 10,8 km/h (2 Bft) 0 min
31.05.2013 03:30 21,3 C 8,6 C 9,1 C 99 % 0 % 993 hPa 0,0 l/m 13,4 km/h (3 Bft) 0 min
31.05.2013 03:33 21,2 C 8,6 C 9,1 C 99 % 0 % 993 hPa 0,0 l/m 14,5 km/h (3 Bft) 0 min
31.05.2013 03:36 21,2 C 8,6 C 9,1 C 99 % 0 % 993 hPa 0,0 l/m 13,5 km/h (3 Bft) 0 min
31.05.2013 03:39 21,2 C 8,6 C 9,1 C 99 % 0 % 993 hPa 0,0 l/m 14,0 km/h (3 Bft) 0 min
31.05.2013 03:42 21,2 C 8,6 C 9,1 C 99 % 0 % 993 hPa 0,3 l/m 13,1 km/h (3 Bft) 0 min
31.05.2013 03:45 21,2 C 8,6 C 9,1 C 99 % 0 % 993 hPa 0,0 l/m 12,8 km/h (3 Bft) 0 min
31.05.2013 03:48 21,2 C 8,6 C 9,1 C 99 % 0 % 993 hPa 0,0 l/m 12,8 km/h (3 Bft) 0 min
31.05.2013 03:51 21,2 C 8,6 C 9,1 C 99 % 0 % 993 hPa 0,0 l/m 14,6 km/h (3 Bft) 0 min
31.05.2013 03:54 21,2 C 8,6 C 9,1 C 99 % 0 % 993 hPa 0,3 l/m 13,5 km/h (3 Bft) 0 min
31.05.2013 03:57 21,2 C 8,6 C 9,1 C 99 % 0 % 993 hPa 0,0 l/m 12,0 km/h (2 Bft) 0 min
31.05.2013 04:00 21,2 C 8,6 C 9,1 C 99 % 0 % 993 hPa 0,0 l/m 11,6 km/h (2 Bft) 0 min
31.05.2013 04:03 21,2 C 8,6 C 9,1 C 99 % 0 % 993 hPa 0,0 l/m 11,6 km/h (2 Bft) 0 min
31.05.2013 04:06 21,2 C 8,6 C 9,1 C 99 % 0 % 993 hPa 0,0 l/m 10,7 km/h (2 Bft) 0 min
31.05.2013 04:09 21,2 C 8,6 C 9,1 C 99 % 0 % 993 hPa 0,3 l/m 18,8 km/h (3 Bft) 0 min
31.05.2013 04:12 21,2 C 8,6 C 9,1 C 99 % 0 % 993 hPa 0,0 l/m 18,0 km/h (3 Bft) 0 min
31.05.2013 04:15 21,2 C 8,6 C 9,1 C 99 % 0 % 993 hPa 0,0 l/m 13,8 km/h (3 Bft) 0 min
31.05.2013 04:18 21,2 C 8,6 C 9,1 C 99 % 0 % 993 hPa 0,0 l/m 13,8 km/h (3 Bft) 0 min
31.05.2013 04:21 21,3 C 8,6 C 9,1 C 99 % 0 % 993 hPa 0,0 l/m 18,2 km/h (3 Bft) 0 min
31.05.2013 04:24 21,3 C 8,6 C 9,1 C 99 % 0 % 993 hPa 0,0 l/m 13,8 km/h (3 Bft) 0 min
31.05.2013 04:27 21,3 C 8,6 C 9,1 C 99 % 0 % 993 hPa 0,0 l/m 14,6 km/h (3 Bft) 0 min
31.05.2013 04:30 21,3 C 8,6 C 9,1 C 99 % 0 % 993 hPa 0,0 l/m 19,6 km/h (3 Bft) 0 min
31.05.2013 04:33 21,4 C 8,6 C 9,1 C 99 % 0 % 993 hPa 0,0 l/m 14,3 km/h (3 Bft) 0 min
31.05.2013 04:36 21,4 C 8,6 C 9,2 C 99 % 0 % 993 hPa 0,3 l/m 14,3 km/h (3 Bft) 0 min
31.05.2013 04:39 21,4 C 8,6 C 9,1 C 99 % 0 % 993 hPa 0,0 l/m 17,2 km/h (3 Bft) 0 min
31.05.2013 04:42 21,4 C 8,6 C 9,1 C 99 % 0 % 993 hPa 0,0 l/m 13,5 km/h (3 Bft) 0 min
31.05.2013 04:45 21,4 C 8,6 C 9,1 C 99 % 0 % 993 hPa 0,0 l/m 14,1 km/h (3 Bft) 0 min
31.05.2013 04:48 21,4 C 8,6 C 9,1 C 99 % 0 % 993 hPa 0,3 l/m 15,5 km/h (3 Bft) 0 min
31.05.2013 04:51 21,4 C 8,6 C 9,1 C 99 % 0 % 992 hPa 0,0 l/m 16,5 km/h (3 Bft) 0 min
31.05.2013 04:54 21,4 C 8,6 C 9,1 C 99 % 0 % 992 hPa 0,0 l/m 21,7 km/h (4 Bft) 0 min
31.05.2013 04:57 21,5 C 8,6 C 9,0 C 99 % 0 % 992 hPa 0,3 l/m 14,9 km/h (3 Bft) 0 min
31.05.2013 05:00 21,5 C 8,6 C 9,0 C 99 % 0 % 992 hPa 0,0 l/m 14,6 km/h (3 Bft) 0 min
31.05.2013 05:03 21,5 C 8,6 C 9,0 C 99 % 0 % 992 hPa 0,0 l/m 14,1 km/h (3 Bft) 0 min
31.05.2013 05:06 21,5 C 8,6 C 9,0 C 99 % 0 % 993 hPa 0,3 l/m 23,0 km/h (4 Bft) 0 min
31.05.2013 05:09 21,5 C 8,6 C 9,0 C 99 % 0 % 993 hPa 0,0 l/m 20,3 km/h (4 Bft) 0 min
31.05.2013 05:12 21,5 C 8,6 C 9,0 C 99 % 0 % 993 hPa 0,0 l/m 17,1 km/h (3 Bft) 0 min
31.05.2013 05:15 21,5 C 8,6 C 9,0 C 99 % 0 % 993 hPa 0,0 l/m 20,8 km/h (4 Bft) 0 min
31.05.2013 05:18 21,5 C 8,5 C 9,0 C 99 % 0 % 992 hPa 0,3 l/m 18,1 km/h (3 Bft) 0 min
31.05.2013 05:21 21,5 C 8,5 C 9,0 C 99 % 0 % 992 hPa 0,0 l/m 19,8 km/h (3 Bft) 0 min
31.05.2013 05:24 21,5 C 8,5 C 9,0 C 99 % 0 % 992 hPa 0,0 l/m 17,2 km/h (3 Bft) 0 min
31.05.2013 05:27 21,5 C 8,5 C 9,0 C 99 % 0 % 993 hPa 0,0 l/m 19,9 km/h (4 Bft) 0 min
31.05.2013 05:30 21,5 C 8,5 C 9,0 C 99 % 0 % 993 hPa 0,0 l/m 17,3 km/h (3 Bft) 0 min
31.05.2013 05:33 21,5 C 8,5 C 8,9 C 99 % 0 % 993 hPa 0,0 l/m 10,3 km/h (2 Bft) 0 min
31.05.2013 05:36 21,5 C 8,5 C 8,9 C 99 % 0 % 993 hPa 0,0 l/m 15,6 km/h (3 Bft) 0 min
31.05.2013 05:39 21,5 C 8,5 C 8,9 C 99 % 0 % 993 hPa 0,0 l/m 16,8 km/h (3 Bft) 0 min
31.05.2013 05:42 21,5 C 8,5 C 8,9 C 99 % 0 % 993 hPa 0,0 l/m 16,8 km/h (3 Bft) 0 min
31.05.2013 05:45 21,5 C 8,4 C 8,9 C 99 % 0 % 993 hPa 0,0 l/m 18,4 km/h (3 Bft) 0 min
31.05.2013 05:48 21,5 C 8,4 C 8,8 C 99 % 1 % 993 hPa 0,0 l/m 14,0 km/h (3 Bft) 0 min
31.05.2013 05:51 21,5 C 8,4 C 8,9 C 99 % 1 % 993 hPa 0,0 l/m 11,0 km/h (2 Bft) 0 min
31.05.2013 05:54 21,6 C 8,4 C 8,8 C 99 % 1 % 993 hPa 0,0 l/m 20,6 km/h (4 Bft) 0 min
31.05.2013 05:57 21,6 C 8,4 C 8,8 C 99 % 1 % 993 hPa 0,3 l/m 17,5 km/h (3 Bft) 0 min
31.05.2013 06:00 21,6 C 8,3 C 8,8 C 99 % 1 % 993 hPa 0,0 l/m 16,3 km/h (3 Bft) 0 min
31.05.2013 06:03 21,6 C 8,3 C 8,8 C 99 % 1 % 993 hPa 0,0 l/m 16,3 km/h (3 Bft) 0 min
31.05.2013 06:06 21,6 C 8,3 C 8,8 C 99 % 1 % 993 hPa 0,0 l/m 14,6 km/h (3 Bft) 0 min
31.05.2013 06:09 21,6 C 8,3 C 8,8 C 99 % 1 % 993 hPa 0,0 l/m 13,6 km/h (3 Bft) 0 min
31.05.2013 06:12 21,6 C 8,3 C 8,7 C 99 % 1 % 993 hPa 0,0 l/m 11,0 km/h (2 Bft) 0 min
31.05.2013 06:15 21,6 C 8,3 C 8,7 C 99 % 1 % 993 hPa 0,0 l/m 15,8 km/h (3 Bft) 0 min
31.05.2013 06:18 21,6 C 8,3 C 8,8 C 99 % 2 % 993 hPa 0,0 l/m 12,3 km/h (3 Bft) 0 min
31.05.2013 06:21 21,6 C 8,3 C 8,7 C 99 % 2 % 993 hPa 0,0 l/m 18,5 km/h (3 Bft) 0 min
31.05.2013 06:24 21,6 C 8,2 C 8,7 C 99 % 2 % 992 hPa 0,0 l/m 12,6 km/h (3 Bft) 0 min
31.05.2013 06:27 21,6 C 8,2 C 8,7 C 99 % 3 % 992 hPa 0,0 l/m 15,1 km/h (3 Bft) 0 min
31.05.2013 06:30 21,6 C 8,2 C 8,7 C 99 % 3 % 992 hPa 0,3 l/m 25,1 km/h (4 Bft) 0 min
31.05.2013 06:33 21,7 C 8,2 C 8,7 C 99 % 3 % 992 hPa 0,0 l/m 11,3 km/h (2 Bft) 0 min
31.05.2013 06:36 21,7 C 8,2 C 8,7 C 99 % 3 % 992 hPa 0,0 l/m 10,0 km/h (2 Bft) 0 min
31.05.2013 06:39 21,8 C 8,2 C 8,7 C 99 % 3 % 992 hPa 0,0 l/m 16,6 km/h (3 Bft) 0 min
31.05.2013 06:42 21,8 C 8,2 C 8,7 C 99 % 4 % 992 hPa 0,0 l/m 15,6 km/h (3 Bft) 0 min
31.05.2013 06:45 21,8 C 8,2 C 8,7 C 99 % 5 % 993 hPa 0,0 l/m 18,0 km/h (3 Bft) 0 min
31.05.2013 06:48 21,8 C 8,2 C 8,7 C 99 % 6 % 992 hPa 0,0 l/m 16,0 km/h (3 Bft) 0 min
31.05.2013 06:51 21,8 C 8,2 C 8,7 C 99 % 8 % 992 hPa 0,0 l/m 15,0 km/h (3 Bft) 0 min
31.05.2013 06:54 21,8 C 8,2 C 8,7 C 99 % 7 % 992 hPa 0,0 l/m 15,0 km/h (3 Bft) 0 min
31.05.2013 06:57 21,8 C 8,2 C 8,7 C 99 % 6 % 992 hPa 0,0 l/m 18,9 km/h (3 Bft) 0 min
31.05.2013 07:00 21,8 C 8,2 C 8,7 C 99 % 5 % 992 hPa 0,3 l/m 13,4 km/h (3 Bft) 0 min
31.05.2013 07:03 21,8 C 8,2 C 8,7 C 99 % 4 % 992 hPa 0,0 l/m 13,4 km/h (3 Bft) 0 min
31.05.2013 07:06 21,7 C 8,2 C 8,6 C 99 % 4 % 992 hPa 0,0 l/m 10,8 km/h (2 Bft) 0 min
31.05.2013 07:09 21,8 C 8,2 C 8,6 C 99 % 5 % 992 hPa 0,3 l/m 15,6 km/h (3 Bft) 0 min
31.05.2013 07:12 21,8 C 8,1 C 8,6 C 99 % 5 % 992 hPa 0,0 l/m 16,7 km/h (3 Bft) 0 min
31.05.2013 07:15 21,8 C 8,1 C 8,6 C 99 % 5 % 992 hPa 0,0 l/m 18,6 km/h (3 Bft) 0 min
31.05.2013 07:18 21,8 C 8,1 C 8,6 C 99 % 4 % 993 hPa 0,0 l/m 19,1 km/h (3 Bft) 0 min
31.05.2013 07:21 21,8 C 8,1 C 8,7 C 99 % 3 % 993 hPa 0,0 l/m 11,9 km/h (2 Bft) 0 min
31.05.2013 07:24 21,7 C 8,1 C 8,6 C 99 % 5 % 993 hPa 0,0 l/m 17,4 km/h (3 Bft) 0 min
31.05.2013 07:27 21,7 C 8,1 C 8,7 C 99 % 7 % 993 hPa 0,0 l/m 12,1 km/h (2 Bft) 0 min
31.05.2013 07:30 21,7 C 8,1 C 8,7 C 99 % 10 % 993 hPa 0,0 l/m 17,3 km/h (3 Bft) 0 min
31.05.2013 07:33 21,7 C 8,1 C 8,8 C 99 % 10 % 993 hPa 0,0 l/m 13,1 km/h (3 Bft) 0 min
31.05.2013 07:36 21,7 C 8,1 C 8,8 C 99 % 9 % 993 hPa 0,0 l/m 13,3 km/h (3 Bft) 0 min
31.05.2013 07:39 21,7 C 8,1 C 8,8 C 99 % 11 % 993 hPa 0,0 l/m 15,5 km/h (3 Bft) 0 min
31.05.2013 07:42 21,7 C 8,1 C 8,8 C 99 % 11 % 993 hPa 0,3 l/m 14,6 km/h (3 Bft) 0 min
31.05.2013 07:45 21,7 C 8,1 C 8,7 C 99 % 10 % 993 hPa 0,0 l/m 17,0 km/h (3 Bft) 0 min
31.05.2013 07:48 21,7 C 8,1 C 8,7 C 99 % 9 % 993 hPa 0,0 l/m 16,8 km/h (3 Bft) 0 min
31.05.2013 07:51 21,8 C 8,1 C 8,7 C 99 % 9 % 993 hPa 0,0 l/m 16,5 km/h (3 Bft) 0 min
31.05.2013 07:54 21,7 C 8,1 C 8,8 C 99 % 9 % 993 hPa 0,0 l/m 13,6 km/h (3 Bft) 0 min
31.05.2013 07:57 21,8 C 8,1 C 8,7 C 99 % 7 % 993 hPa 0,0 l/m 13,5 km/h (3 Bft) 0 min
31.05.2013 08:00 21,8 C 8,1 C 8,7 C 99 % 6 % 993 hPa 0,0 l/m 14,6 km/h (3 Bft) 0 min
31.05.2013 08:03 21,8 C 8,1 C 8,6 C 99 % 6 % 993 hPa 0,0 l/m 9,3 km/h (2 Bft) 0 min
31.05.2013 08:06 21,7 C 8,1 C 8,6 C 99 % 5 % 993 hPa 0,0 l/m 15,5 km/h (3 Bft) 0 min
31.05.2013 08:09 21,7 C 8,1 C 8,7 C 99 % 6 % 993 hPa 0,0 l/m 14,2 km/h (3 Bft) 0 min
31.05.2013 08:12 21,7 C 8,1 C 8,6 C 99 % 6 % 993 hPa 0,0 l/m 14,0 km/h (3 Bft) 0 min
31.05.2013 08:15 21,8 C 8,1 C 8,6 C 99 % 7 % 993 hPa 0,0 l/m 15,6 km/h (3 Bft) 0 min
31.05.2013 08:18 21,8 C 8,1 C 8,7 C 99 % 9 % 993 hPa 0,0 l/m 15,6 km/h (3 Bft) 0 min
31.05.2013 08:21 21,8 C 8,1 C 8,7 C 99 % 9 % 993 hPa 0,3 l/m 11,8 km/h (2 Bft) 0 min
31.05.2013 08:24 21,7 C 8,1 C 8,7 C 99 % 13 % 993 hPa 0,0 l/m 13,3 km/h (3 Bft) 0 min
31.05.2013 08:27 21,8 C 8,1 C 8,8 C 99 % 14 % 993 hPa 0,0 l/m 12,5 km/h (3 Bft) 0 min
31.05.2013 08:30 21,2 C 8,1 C 8,8 C 99 % 9 % 993 hPa 0,0 l/m 12,8 km/h (3 Bft) 0 min
31.05.2013 08:33 20,5 C 8,1 C 8,7 C 99 % 8 % 993 hPa 0,0 l/m 12,8 km/h (3 Bft) 0 min
31.05.2013 08:36 19,9 C 8,1 C 8,7 C 99 % 9 % 993 hPa 0,0 l/m 9,1 km/h (2 Bft) 0 min
31.05.2013 08:39 19,5 C 8,1 C 8,8 C 99 % 10 % 993 hPa 0,0 l/m 8,9 km/h (2 Bft) 0 min
31.05.2013 08:42 19,2 C 8,1 C 8,8 C 99 % 8 % 993 hPa 0,0 l/m 11,7 km/h (2 Bft) 0 min
31.05.2013 08:45 19,8 C 8,1 C 8,7 C 99 % 7 % 993 hPa 0,0 l/m 12,6 km/h (3 Bft) 0 min
31.05.2013 08:48 20,2 C 8,1 C 8,7 C 99 % 7 % 993 hPa 0,0 l/m 12,1 km/h (2 Bft) 0 min
31.05.2013 08:51 20,4 C 8,1 C 8,7 C 99 % 7 % 993 hPa 0,0 l/m 9,8 km/h (2 Bft) 0 min
31.05.2013 08:54 20,7 C 8,1 C 8,7 C 99 % 6 % 993 hPa 0,0 l/m 12,8 km/h (3 Bft) 0 min
31.05.2013 08:57 20,8 C 8,1 C 8,7 C 99 % 7 % 993 hPa 0,0 l/m 13,6 km/h (3 Bft) 0 min
31.05.2013 09:00 21,0 C 8,1 C 8,7 C 99 % 8 % 993 hPa 0,0 l/m 17,8 km/h (3 Bft) 0 min
31.05.2013 09:03 21,1 C 8,1 C 8,7 C 99 % 9 % 993 hPa 0,0 l/m 16,0 km/h (3 Bft) 0 min
31.05.2013 09:06 21,2 C 8,1 C 8,7 C 99 % 10 % 993 hPa 0,0 l/m 15,1 km/h (3 Bft) 0 min
31.05.2013 09:09 21,2 C 8,1 C 8,8 C 99 % 12 % 993 hPa 0,0 l/m 15,1 km/h (3 Bft) 0 min
31.05.2013 09:12 21,3 C 8,1 C 8,8 C 99 % 11 % 993 hPa 0,0 l/m 17,4 km/h (3 Bft) 0 min
31.05.2013 09:15 21,4 C 8,1 C 8,9 C 99 % 14 % 993 hPa 0,3 l/m 15,8 km/h (3 Bft) 0 min
31.05.2013 09:18 21,4 C 8,1 C 9,0 C 99 % 14 % 993 hPa 0,0 l/m 11,3 km/h (2 Bft) 0 min
31.05.2013 09:21 21,4 C 8,1 C 9,0 C 99 % 16 % 993 hPa 0,0 l/m 10,6 km/h (2 Bft) 0 min
31.05.2013 09:24 21,4 C 8,1 C 9,0 C 99 % 16 % 993 hPa 0,3 l/m 10,6 km/h (2 Bft) 0 min
31.05.2013 09:27 21,4 C 8,1 C 9,0 C 99 % 16 % 993 hPa 0,0 l/m 8,3 km/h (2 Bft) 0 min
31.05.2013 09:30 21,5 C 8,2 C 9,0 C 99 % 11 % 993 hPa 0,0 l/m 13,7 km/h (3 Bft) 0 min
31.05.2013 09:33 21,5 C 8,2 C 9,0 C 99 % 12 % 993 hPa 0,0 l/m 9,7 km/h (2 Bft) 0 min
31.05.2013 09:36 21,6 C 8,2 C 9,0 C 99 % 13 % 993 hPa 0,0 l/m 12,3 km/h (3 Bft) 0 min
31.05.2013 09:39 21,6 C 8,2 C 9,1 C 99 % 15 % 993 hPa 0,3 l/m 10,4 km/h (2 Bft) 0 min
31.05.2013 09:42 21,6 C 8,2 C 9,1 C 99 % 17 % 993 hPa 0,0 l/m 9,6 km/h (2 Bft) 0 min
31.05.2013 09:45 21,7 C 8,2 C 9,1 C 99 % 17 % 993 hPa 0,0 l/m 12,8 km/h (3 Bft) 0 min
31.05.2013 09:48 21,6 C 8,2 C 9,3 C 99 % 18 % 993 hPa 0,0 l/m 14,5 km/h (3 Bft) 0 min
31.05.2013 09:51 21,7 C 8,2 C 9,2 C 99 % 20 % 993 hPa 0,0 l/m 13,4 km/h (3 Bft) 0 min
31.05.2013 09:54 21,7 C 8,2 C 9,4 C 99 % 23 % 993 hPa 0,0 l/m 13,8 km/h (3 Bft) 0 min
31.05.2013 09:57 21,7 C 8,2 C 9,5 C 99 % 24 % 993 hPa 0,0 l/m 11,1 km/h (2 Bft) 0 min
31.05.2013 10:00 21,7 C 8,3 C 9,5 C 99 % 24 % 993 hPa 0,0 l/m 17,9 km/h (3 Bft) 0 min
31.05.2013 10:03 21,8 C 8,3 C 9,6 C 99 % 25 % 993 hPa 0,0 l/m 20,0 km/h (4 Bft) 0 min
31.05.2013 10:06 21,8 C 8,3 C 9,6 C 99 % 28 % 993 hPa 0,0 l/m 10,5 km/h (2 Bft) 0 min
31.05.2013 10:09 21,8 C 8,4 C 9,7 C 99 % 24 % 993 hPa 0,0 l/m 7,2 km/h (2 Bft) 0 min
31.05.2013 10:12 21,8 C 8,4 C 9,6 C 99 % 24 % 993 hPa 0,0 l/m 6,2 km/h (2 Bft) 0 min
31.05.2013 10:15 21,8 C 8,4 C 9,6 C 99 % 17 % 993 hPa 0,0 l/m 7,2 km/h (2 Bft) 0 min
31.05.2013 10:18 21,8 C 8,5 C 9,4 C 99 % 17 % 993 hPa 0,0 l/m 9,8 km/h (2 Bft) 0 min
31.05.2013 10:21 21,8 C 8,5 C 9,4 C 99 % 16 % 993 hPa 0,0 l/m 10,6 km/h (2 Bft) 0 min
31.05.2013 10:24 21,2 C 8,5 C 9,5 C 99 % 15 % 993 hPa 0,0 l/m 12,8 km/h (3 Bft) 0 min
31.05.2013 10:27 20,4 C 8,5 C 9,5 C 99 % 14 % 993 hPa 0,0 l/m 15,0 km/h (3 Bft) 0 min
31.05.2013 10:30 19,1 C 8,5 C 9,3 C 99 % 14 % 993 hPa 0,3 l/m 11,1 km/h (2 Bft) 0 min
31.05.2013 10:33 18,7 C 8,5 C 9,4 C 99 % 14 % 993 hPa 0,0 l/m 11,1 km/h (2 Bft) 0 min
31.05.2013 10:36 18,5 C 8,5 C 9,4 C 99 % 15 % 993 hPa 0,0 l/m 15,8 km/h (3 Bft) 0 min
31.05.2013 10:39 18,4 C 8,5 C 9,3 C 99 % 15 % 993 hPa 0,0 l/m 13,3 km/h (3 Bft) 0 min
31.05.2013 10:42 18,2 C 8,5 C 9,3 C 99 % 13 % 993 hPa 0,0 l/m 14,4 km/h (3 Bft) 0 min
31.05.2013 10:45 18,0 C 8,5 C 9,3 C 99 % 13 % 993 hPa 0,0 l/m 11,7 km/h (2 Bft) 0 min
31.05.2013 10:48 17,8 C 8,5 C 9,3 C 99 % 14 % 993 hPa 0,0 l/m 11,8 km/h (2 Bft) 0 min
31.05.2013 10:51 17,8 C 8,5 C 9,3 C 99 % 13 % 993 hPa 0,0 l/m 14,0 km/h (3 Bft) 0 min
31.05.2013 10:54 17,7 C 8,5 C 9,3 C 99 % 13 % 993 hPa 0,0 l/m 9,2 km/h (2 Bft) 0 min
31.05.2013 10:57 17,6 C 8,5 C 9,3 C 99 % 13 % 993 hPa 0,0 l/m 17,0 km/h (3 Bft) 0 min
31.05.2013 11:00 17,6 C 8,5 C 9,5 C 99 % 16 % 993 hPa 0,0 l/m 10,9 km/h (2 Bft) 0 min
31.05.2013 11:03 17,4 C 8,5 C 9,4 C 99 % 17 % 993 hPa 0,0 l/m 15,0 km/h (3 Bft) 0 min
31.05.2013 11:06 17,3 C 8,5 C 9,5 C 99 % 17 % 993 hPa 0,0 l/m 14,5 km/h (3 Bft) 0 min
31.05.2013 11:09 17,3 C 8,6 C 9,5 C 99 % 20 % 993 hPa 0,0 l/m 16,6 km/h (3 Bft) 0 min
31.05.2013 11:12 17,3 C 8,6 C 9,6 C 99 % 14 % 993 hPa 0,0 l/m 22,5 km/h (4 Bft) 0 min
31.05.2013 11:15 17,2 C 8,6 C 9,5 C 99 % 17 % 993 hPa 0,0 l/m 22,1 km/h (4 Bft) 0 min
31.05.2013 11:18 17,2 C 8,6 C 9,6 C 99 % 16 % 993 hPa 0,0 l/m 21,5 km/h (4 Bft) 0 min
31.05.2013 11:21 17,2 C 8,7 C 9,5 C 99 % 16 % 993 hPa 0,0 l/m 15,6 km/h (3 Bft) 0 min
31.05.2013 11:24 17,4 C 8,7 C 9,7 C 99 % 16 % 993 hPa 0,0 l/m 15,3 km/h (3 Bft) 0 min
31.05.2013 11:27 17,7 C 8,7 C 9,6 C 99 % 20 % 993 hPa 0,0 l/m 23,5 km/h (4 Bft) 0 min
31.05.2013 11:30 18,1 C 8,7 C 9,6 C 99 % 20 % 993 hPa 0,0 l/m 22,5 km/h (4 Bft) 0 min
31.05.2013 11:33 18,4 C 8,8 C 9,6 C 99 % 22 % 993 hPa 0,0 l/m 11,7 km/h (2 Bft) 0 min
31.05.2013 11:36 18,8 C 8,8 C 9,5 C 99 % 22 % 993 hPa 0,0 l/m 11,7 km/h (2 Bft) 0 min
31.05.2013 11:39 19,0 C 8,8 C 9,4 C 99 % 19 % 993 hPa 0,0 l/m 13,5 km/h (3 Bft) 0 min
31.05.2013 11:42 19,2 C 8,8 C 9,4 C 99 % 18 % 993 hPa 0,0 l/m 23,6 km/h (4 Bft) 0 min
31.05.2013 11:45 19,4 C 8,8 C 9,3 C 99 % 14 % 993 hPa 0,0 l/m 14,1 km/h (3 Bft) 0 min
31.05.2013 11:48 19,5 C 8,8 C 9,3 C 99 % 17 % 993 hPa 0,0 l/m 17,0 km/h (3 Bft) 0 min
31.05.2013 11:51 19,7 C 8,8 C 9,2 C 99 % 14 % 993 hPa 0,0 l/m 22,0 km/h (4 Bft) 0 min
31.05.2013 11:54 19,8 C 8,8 C 9,2 C 99 % 15 % 993 hPa 0,0 l/m 14,1 km/h (3 Bft) 0 min
31.05.2013 11:57 19,9 C 8,8 C 9,1 C 99 % 14 % 993 hPa 0,0 l/m 17,5 km/h (3 Bft) 0 min
31.05.2013 12:00 20,0 C 8,8 C 9,1 C 99 % 14 % 993 hPa 0,0 l/m 11,5 km/h (2 Bft) 0 min
31.05.2013 12:03 20,0 C 8,8 C 9,1 C 99 % 14 % 993 hPa 0,0 l/m 14,4 km/h (3 Bft) 0 min
31.05.2013 12:06 20,1 C 8,8 C 9,1 C 99 % 14 % 993 hPa 0,0 l/m 16,8 km/h (3 Bft) 0 min
31.05.2013 12:09 20,2 C 8,8 C 9,1 C 99 % 13 % 993 hPa 0,0 l/m 10,1 km/h (2 Bft) 0 min
31.05.2013 12:12 20,3 C 8,8 C 9,2 C 99 % 16 % 993 hPa 0,0 l/m 10,1 km/h (2 Bft) 0 min
31.05.2013 12:15 20,5 C 8,8 C 9,1 C 99 % 17 % 993 hPa 0,0 l/m 14,1 km/h (3 Bft) 0 min
31.05.2013 12:18 20,5 C 8,8 C 9,1 C 99 % 18 % 993 hPa 0,0 l/m 12,7 km/h (3 Bft) 0 min
31.05.2013 12:21 20,7 C 8,8 C 9,2 C 99 % 18 % 993 hPa 0,0 l/m 11,5 km/h (2 Bft) 0 min
31.05.2013 12:24 20,7 C 8,8 C 9,3 C 99 % 20 % 993 hPa 0,0 l/m 21,1 km/h (4 Bft) 0 min
31.05.2013 12:27 20,8 C 8,8 C 9,3 C 99 % 16 % 993 hPa 0,0 l/m 16,2 km/h (3 Bft) 0 min
31.05.2013 12:30 20,9 C 8,8 C 9,4 C 99 % 13 % 993 hPa 0,0 l/m 14,5 km/h (3 Bft) 0 min
31.05.2013 12:33 20,9 C 8,8 C 9,3 C 99 % 12 % 993 hPa 0,0 l/m 19,1 km/h (3 Bft) 0 min
31.05.2013 12:36 21,0 C 8,8 C 9,3 C 99 % 15 % 993 hPa 0,0 l/m 29,3 km/h (5 Bft) 0 min
31.05.2013 12:39 20,9 C 8,8 C 9,3 C 99 % 16 % 993 hPa 0,0 l/m 17,4 km/h (3 Bft) 0 min
31.05.2013 12:42 20,9 C 8,8 C 9,6 C 99 % 20 % 993 hPa 0,0 l/m 13,3 km/h (3 Bft) 0 min
31.05.2013 12:45 20,9 C 8,8 C 9,6 C 99 % 17 % 993 hPa 0,0 l/m 19,3 km/h (3 Bft) 0 min
31.05.2013 12:48 20,9 C 8,8 C 9,6 C 99 % 16 % 993 hPa 0,0 l/m 19,3 km/h (3 Bft) 0 min
31.05.2013 12:51 20,9 C 8,9 C 9,5 C 99 % 16 % 993 hPa 0,0 l/m 11,5 km/h (2 Bft) 0 min
31.05.2013 12:54 20,9 C 8,9 C 9,5 C 99 % 12 % 993 hPa 0,0 l/m 11,7 km/h (2 Bft) 0 min
31.05.2013 12:57 21,0 C 8,8 C 9,3 C 99 % 9 % 993 hPa 0,3 l/m 13,0 km/h (3 Bft) 0 min
31.05.2013 13:00 21,0 C 8,8 C 9,5 C 99 % 9 % 993 hPa 0,0 l/m 13,6 km/h (3 Bft) 0 min
31.05.2013 13:03 21,0 C 8,8 C 9,4 C 99 % 13 % 993 hPa 0,0 l/m 17,6 km/h (3 Bft) 0 min
31.05.2013 13:06 21,0 C 8,8 C 9,4 C 99 % 16 % 993 hPa 0,0 l/m 14,6 km/h (3 Bft) 0 min
31.05.2013 13:09 21,0 C 8,8 C 9,5 C 99 % 19 % 993 hPa 0,3 l/m 13,6 km/h (3 Bft) 0 min
31.05.2013 13:12 21,0 C 8,9 C 9,5 C 99 % 19 % 993 hPa 0,0 l/m 27,9 km/h (4 Bft) 0 min
31.05.2013 13:15 21,0 C 8,8 C 9,5 C 99 % 23 % 993 hPa 0,3 l/m 17,1 km/h (3 Bft) 0 min
31.05.2013 13:18 21,0 C 8,9 C 9,6 C 99 % 27 % 993 hPa 0,0 l/m 16,2 km/h (3 Bft) 0 min
31.05.2013 13:21 21,0 C 8,9 C 9,6 C 99 % 26 % 993 hPa 0,3 l/m 19,9 km/h (4 Bft) 0 min
31.05.2013 13:24 21,0 C 8,9 C 9,6 C 99 % 26 % 993 hPa 0,0 l/m 18,1 km/h (3 Bft) 0 min
31.05.2013 13:27 21,1 C 9,0 C 9,7 C 99 % 26 % 993 hPa 0,0 l/m 18,1 km/h (3 Bft) 0 min
31.05.2013 13:30 21,1 C 9,0 C 9,7 C 99 % 21 % 993 hPa 0,0 l/m 21,8 km/h (4 Bft) 0 min
31.05.2013 13:33 21,1 C 9,0 C 9,6 C 99 % 21 % 993 hPa 0,0 l/m 19,6 km/h (3 Bft) 0 min
31.05.2013 13:36 21,2 C 9,0 C 9,6 C 99 % 18 % 993 hPa 0,0 l/m 17,0 km/h (3 Bft) 0 min
31.05.2013 13:39 21,2 C 9,0 C 9,6 C 99 % 17 % 993 hPa 0,0 l/m 15,0 km/h (3 Bft) 0 min
31.05.2013 13:42 21,2 C 9,0 C 9,6 C 99 % 16 % 994 hPa 0,3 l/m 17,8 km/h (3 Bft) 0 min
31.05.2013 13:45 21,2 C 9,0 C 9,5 C 99 % 14 % 994 hPa 0,0 l/m 17,3 km/h (3 Bft) 0 min
31.05.2013 13:48 21,2 C 9,0 C 9,4 C 99 % 9 % 994 hPa 0,0 l/m 16,0 km/h (3 Bft) 0 min
31.05.2013 13:51 21,2 C 9,0 C 9,4 C 99 % 10 % 994 hPa 0,3 l/m 13,1 km/h (3 Bft) 0 min
31.05.2013 13:54 21,1 C 9,0 C 9,4 C 99 % 12 % 994 hPa 0,0 l/m 13,1 km/h (3 Bft) 0 min
31.05.2013 13:57 21,2 C 9,0 C 9,4 C 99 % 12 % 994 hPa 0,3 l/m 14,1 km/h (3 Bft) 0 min
31.05.2013 14:00 21,2 C 9,0 C 9,3 C 99 % 12 % 994 hPa 0,0 l/m 16,4 km/h (3 Bft) 0 min
31.05.2013 14:03 21,2 C 9,0 C 9,3 C 99 % 13 % 994 hPa 0,3 l/m 16,4 km/h (3 Bft) 0 min
31.05.2013 14:06 21,2 C 9,0 C 9,5 C 99 % 15 % 994 hPa 0,0 l/m 7,3 km/h (2 Bft) 0 min
31.05.2013 14:09 21,2 C 9,0 C 9,6 C 99 % 17 % 994 hPa 0,3 l/m 7,9 km/h (2 Bft) 0 min
31.05.2013 14:12 21,2 C 9,0 C 9,6 C 99 % 17 % 994 hPa 0,0 l/m 10,3 km/h (2 Bft) 0 min
31.05.2013 14:15 21,2 C 9,1 C 9,7 C 99 % 21 % 994 hPa 0,3 l/m 9,6 km/h (2 Bft) 0 min
31.05.2013 14:18 21,3 C 9,1 C 9,9 C 99 % 21 % 994 hPa 0,0 l/m 8,4 km/h (2 Bft) 0 min
31.05.2013 14:21 21,2 C 9,2 C 10,0 C 99 % 20 % 994 hPa 0,0 l/m 1,3 km/h (1 Bft) 0 min
31.05.2013 14:24 21,2 C 9,2 C 10,0 C 99 % 21 % 994 hPa 0,0 l/m 1,3 km/h (1 Bft) 0 min
31.05.2013 14:27 21,3 C 9,2 C 10,0 C 99 % 20 % 994 hPa 0,0 l/m 9,8 km/h (2 Bft) 0 min
31.05.2013 14:30 21,3 C 9,2 C 10,1 C 99 % 19 % 994 hPa 0,3 l/m 7,1 km/h (2 Bft) 0 min
31.05.2013 14:33 21,3 C 9,2 C 10,1 C 99 % 24 % 994 hPa 0,0 l/m 7,1 km/h (2 Bft) 0 min
31.05.2013 14:36 21,3 C 9,3 C 10,2 C 99 % 22 % 994 hPa 0,0 l/m 11,5 km/h (2 Bft) 0 min
31.05.2013 14:39 21,3 C 9,4 C 10,1 C 99 % 22 % 994 hPa 0,0 l/m 3,9 km/h (1 Bft) 0 min
31.05.2013 14:42 21,3 C 9,4 C 10,1 C 99 % 22 % 994 hPa 0,0 l/m 10,1 km/h (2 Bft) 0 min
31.05.2013 14:45 21,3 C 9,4 C 10,2 C 99 % 18 % 994 hPa 0,0 l/m 3,6 km/h (1 Bft) 0 min
31.05.2013 14:48 21,3 C 9,5 C 10,2 C 99 % 20 % 994 hPa 0,0 l/m 8,4 km/h (2 Bft) 0 min
31.05.2013 14:51 21,3 C 9,5 C 10,1 C 99 % 23 % 994 hPa 0,0 l/m 5,8 km/h (2 Bft) 0 min
31.05.2013 14:54 21,4 C 9,5 C 10,1 C 99 % 24 % 994 hPa 0,0 l/m 13,8 km/h (3 Bft) 0 min
31.05.2013 14:57 21,3 C 9,5 C 10,0 C 99 % 23 % 994 hPa 0,0 l/m 11,0 km/h (2 Bft) 0 min
31.05.2013 15:00 21,3 C 9,5 C 10,5 C 99 % 23 % 994 hPa 0,0 l/m 8,8 km/h (2 Bft) 0 min
31.05.2013 15:03 21,3 C 9,6 C 10,8 C 99 % 45 % 994 hPa 0,0 l/m 8,1 km/h (2 Bft) 0 min
31.05.2013 15:06 21,3 C 9,7 C 10,4 C 99 % 45 % 994 hPa 0,0 l/m 8,1 km/h (2 Bft) 0 min
31.05.2013 15:09 21,3 C 9,7 C 10,4 C 99 % 27 % 994 hPa 0,0 l/m 10,3 km/h (2 Bft) 0 min
31.05.2013 15:12 21,4 C 9,7 C 10,4 C 99 % 27 % 994 hPa 0,0 l/m 21,8 km/h (4 Bft) 0 min
31.05.2013 15:15 21,4 C 9,8 C 10,5 C 99 % 27 % 994 hPa 0,0 l/m 13,9 km/h (3 Bft) 0 min
31.05.2013 15:18 21,3 C 9,7 C 10,1 C 99 % 15 % 994 hPa 0,0 l/m 17,0 km/h (3 Bft) 0 min
31.05.2013 15:21 21,3 C 9,7 C 10,5 C 99 % 15 % 994 hPa 0,0 l/m 15,5 km/h (3 Bft) 0 min
31.05.2013 15:24 21,3 C 9,8 C 10,7 C 99 % 29 % 994 hPa 0,0 l/m 18,7 km/h (3 Bft) 0 min
31.05.2013 15:27 21,3 C 9,8 C 10,6 C 99 % 26 % 994 hPa 0,0 l/m 16,6 km/h (3 Bft) 0 min
31.05.2013 15:30 21,4 C 9,9 C 10,5 C 99 % 28 % 994 hPa 0,0 l/m 14,5 km/h (3 Bft) 0 min
31.05.2013 15:33 21,3 C 9,9 C 10,3 C 99 % 25 % 994 hPa 0,0 l/m 13,4 km/h (3 Bft) 0 min
31.05.2013 15:36 21,3 C 9,9 C 10,3 C 99 % 22 % 994 hPa 0,0 l/m 15,9 km/h (3 Bft) 0 min
31.05.2013 15:39 21,4 C 9,9 C 10,4 C 99 % 27 % 994 hPa 0,0 l/m 13,5 km/h (3 Bft) 0 min
31.05.2013 15:42 21,4 C 9,9 C 10,3 C 99 % 27 % 994 hPa 0,0 l/m 14,0 km/h (3 Bft) 0 min
31.05.2013 15:45 21,4 C 9,9 C 10,3 C 99 % 27 % 994 hPa 0,0 l/m 12,8 km/h (3 Bft) 0 min
31.05.2013 15:48 21,4 C 9,9 C 10,1 C 99 % 15 % 994 hPa 0,0 l/m 17,6 km/h (3 Bft) 0 min
31.05.2013 15:51 21,4 C 9,8 C 9,8 C 99 % 16 % 994 hPa 0,0 l/m 16,3 km/h (3 Bft) 0 min
31.05.2013 15:54 21,3 C 9,8 C 9,8 C 99 % 17 % 994 hPa 0,0 l/m 23,2 km/h (4 Bft) 0 min
31.05.2013 15:57 21,3 C 9,7 C 9,8 C 99 % 19 % 994 hPa 0,0 l/m 27,1 km/h (4 Bft) 0 min
31.05.2013 16:00 21,4 C 9,7 C 9,7 C 99 % 23 % 994 hPa 0,0 l/m 27,5 km/h (4 Bft) 0 min
31.05.2013 16:03 21,4 C 9,7 C 10,1 C 99 % 23 % 994 hPa 0,0 l/m 16,9 km/h (3 Bft) 0 min
31.05.2013 16:06 21,4 C 9,8 C 10,1 C 99 % 34 % 994 hPa 0,0 l/m 20,7 km/h (4 Bft) 0 min
31.05.2013 16:09 21,4 C 9,9 C 10,4 C 99 % 34 % 994 hPa 0,0 l/m 22,8 km/h (4 Bft) 0 min
31.05.2013 16:12 21,4 C 9,9 C 10,3 C 99 % 34 % 994 hPa 0,0 l/m 22,8 km/h (4 Bft) 0 min
31.05.2013 16:15 21,4 C 10,0 C 10,3 C 99 % 30 % 994 hPa 0,0 l/m 22,8 km/h (4 Bft) 0 min
31.05.2013 16:18 21,4 C 10,0 C 10,4 C 99 % 24 % 994 hPa 0,0 l/m 22,8 km/h (4 Bft) 0 min
31.05.2013 16:21 21,4 C 10,0 C 10,2 C 99 % 25 % 994 hPa 0,0 l/m 26,5 km/h (4 Bft) 0 min
31.05.2013 16:24 21,4 C 10,1 C 10,3 C 99 % 29 % 994 hPa 0,0 l/m 21,5 km/h (4 Bft) 0 min
31.05.2013 16:27 21,4 C 10,1 C 10,3 C 99 % 30 % 994 hPa 0,0 l/m 11,6 km/h (2 Bft) 0 min
31.05.2013 16:30 21,4 C 10,1 C 10,3 C 99 % 29 % 994 hPa 0,0 l/m 23,6 km/h (4 Bft) 0 min
31.05.2013 16:33 21,4 C 10,1 C 10,2 C 99 % 26 % 994 hPa 0,0 l/m 19,5 km/h (3 Bft) 0 min
31.05.2013 16:36 21,4 C 10,1 C 10,4 C 99 % 25 % 994 hPa 0,0 l/m 16,6 km/h (3 Bft) 0 min
31.05.2013 16:39 21,4 C 10,2 C 10,2 C 99 % 25 % 994 hPa 0,0 l/m 17,5 km/h (3 Bft) 0 min
31.05.2013 16:42 21,4 C 10,1 C 9,8 C 99 % 20 % 994 hPa 0,0 l/m 17,5 km/h (3 Bft) 0 min
31.05.2013 16:45 21,5 C 10,1 C 9,9 C 99 % 17 % 994 hPa 0,0 l/m 23,8 km/h (4 Bft) 0 min
31.05.2013 16:48 21,5 C 10,1 C 10,0 C 99 % 17 % 994 hPa 0,0 l/m 20,5 km/h (4 Bft) 0 min
31.05.2013 16:51 21,5 C 10,1 C 10,0 C 99 % 22 % 994 hPa 0,0 l/m 20,1 km/h (4 Bft) 0 min
31.05.2013 16:54 21,5 C 10,1 C 10,1 C 99 % 24 % 994 hPa 0,0 l/m 18,9 km/h (3 Bft) 0 min
31.05.2013 16:57 21,5 C 10,1 C 10,0 C 99 % 20 % 994 hPa 0,0 l/m 18,6 km/h (3 Bft) 0 min
31.05.2013 17:00 21,6 C 10,1 C 9,7 C 99 % 20 % 994 hPa 0,0 l/m 16,3 km/h (3 Bft) 0 min
31.05.2013 17:03 21,6 C 10,0 C 9,9 C 99 % 21 % 994 hPa 0,0 l/m 23,0 km/h (4 Bft) 0 min
31.05.2013 17:06 21,6 C 10,0 C 9,8 C 99 % 18 % 994 hPa 0,0 l/m 21,8 km/h (4 Bft) 0 min
31.05.2013 17:09 21,6 C 10,0 C 9,8 C 99 % 18 % 994 hPa 0,0 l/m 19,1 km/h (3 Bft) 0 min
31.05.2013 17:12 21,6 C 10,0 C 9,9 C 99 % 14 % 994 hPa 0,0 l/m 18,9 km/h (3 Bft) 0 min
31.05.2013 17:15 21,6 C 9,9 C 9,9 C 99 % 13 % 994 hPa 0,0 l/m 17,5 km/h (3 Bft) 0 min
31.05.2013 17:18 21,6 C 9,9 C 9,8 C 99 % 12 % 994 hPa 0,0 l/m 17,6 km/h (3 Bft) 0 min
31.05.2013 17:21 21,6 C 9,9 C 9,9 C 99 % 14 % 994 hPa 0,0 l/m 17,5 km/h (3 Bft) 0 min
31.05.2013 17:24 21,6 C 9,9 C 9,9 C 99 % 16 % 994 hPa 0,0 l/m 14,6 km/h (3 Bft) 0 min
31.05.2013 17:27 21,6 C 9,9 C 10,0 C 99 % 16 % 994 hPa 0,0 l/m 14,6 km/h (3 Bft) 0 min
31.05.2013 17:30 21,5 C 9,9 C 10,0 C 99 % 16 % 994 hPa 0,0 l/m 14,8 km/h (3 Bft) 0 min
31.05.2013 17:33 21,5 C 9,9 C 10,1 C 99 % 17 % 994 hPa 0,0 l/m 13,0 km/h (3 Bft) 0 min
31.05.2013 17:36 21,6 C 9,9 C 10,0 C 99 % 18 % 994 hPa 0,0 l/m 12,6 km/h (3 Bft) 0 min
31.05.2013 17:39 21,6 C 9,9 C 10,0 C 99 % 18 % 994 hPa 0,0 l/m 18,6 km/h (3 Bft) 0 min
31.05.2013 17:42 21,6 C 9,9 C 9,9 C 99 % 15 % 994 hPa 0,0 l/m 15,5 km/h (3 Bft) 0 min
31.05.2013 17:45 21,6 C 9,9 C 9,9 C 99 % 15 % 994 hPa 0,0 l/m 16,3 km/h (3 Bft) 0 min
31.05.2013 17:48 21,6 C 9,9 C 10,0 C 99 % 15 % 994 hPa 0,0 l/m 9,2 km/h (2 Bft) 0 min
31.05.2013 17:51 21,6 C 9,9 C 10,0 C 99 % 14 % 994 hPa 0,0 l/m 12,6 km/h (3 Bft) 0 min
31.05.2013 17:54 21,6 C 9,9 C 10,0 C 99 % 13 % 994 hPa 0,0 l/m 10,0 km/h (2 Bft) 0 min
31.05.2013 17:57 21,6 C 9,9 C 10,0 C 99 % 12 % 994 hPa 0,0 l/m 12,6 km/h (3 Bft) 0 min
31.05.2013 18:00 21,6 C 9,9 C 10,1 C 99 % 12 % 994 hPa 0,0 l/m 6,8 km/h (2 Bft) 0 min
31.05.2013 18:03 21,7 C 9,9 C 10,0 C 99 % 7 % 995 hPa 0,0 l/m 11,1 km/h (2 Bft) 0 min
31.05.2013 18:06 21,7 C 9,8 C 10,1 C 99 % 7 % 995 hPa 0,0 l/m 9,6 km/h (2 Bft) 0 min
31.05.2013 18:09 21,7 C 9,8 C 10,1 C 99 % 8 % 995 hPa 0,0 l/m 8,4 km/h (2 Bft) 0 min
31.05.2013 18:12 21,7 C 9,8 C 10,1 C 99 % 9 % 995 hPa 0,0 l/m 17,5 km/h (3 Bft) 0 min
31.05.2013 18:15 21,8 C 9,8 C 10,0 C 99 % 8 % 995 hPa 0,0 l/m 12,1 km/h (2 Bft) 0 min
31.05.2013 18:18 21,8 C 9,7 C 10,0 C 99 % 7 % 995 hPa 0,0 l/m 11,0 km/h (2 Bft) 0 min
31.05.2013 18:21 21,8 C 9,7 C 10,1 C 99 % 6 % 995 hPa 0,0 l/m 6,3 km/h (2 Bft) 0 min
31.05.2013 18:24 21,8 C 9,7 C 10,1 C 99 % 6 % 995 hPa 0,0 l/m 11,7 km/h (2 Bft) 0 min
31.05.2013 18:27 21,8 C 9,7 C 10,2 C 99 % 6 % 995 hPa 0,3 l/m 7,0 km/h (2 Bft) 0 min
31.05.2013 18:30 21,8 C 9,7 C 10,2 C 99 % 7 % 995 hPa 0,0 l/m 11,9 km/h (2 Bft) 0 min
31.05.2013 18:33 21,8 C 9,7 C 10,1 C 99 % 7 % 995 hPa 0,0 l/m 8,4 km/h (2 Bft) 0 min
31.05.2013 18:36 21,8 C 9,7 C 10,1 C 99 % 7 % 995 hPa 0,0 l/m 7,0 km/h (2 Bft) 0 min
31.05.2013 18:39 21,8 C 9,7 C 10,1 C 99 % 7 % 995 hPa 0,0 l/m 6,3 km/h (2 Bft) 0 min
31.05.2013 18:42 21,8 C 9,7 C 10,0 C 99 % 7 % 995 hPa 0,0 l/m 7,6 km/h (2 Bft) 0 min
31.05.2013 18:45 21,8 C 9,6 C 10,0 C 99 % 7 % 995 hPa 0,0 l/m 14,6 km/h (3 Bft) 0 min
31.05.2013 18:48 21,8 C 9,6 C 10,0 C 99 % 6 % 995 hPa 0,0 l/m 14,3 km/h (3 Bft) 0 min
31.05.2013 18:51 21,8 C 9,6 C 9,9 C 99 % 6 % 995 hPa 0,0 l/m 12,9 km/h (3 Bft) 0 min
31.05.2013 18:54 21,8 C 9,6 C 9,8 C 99 % 7 % 995 hPa 0,0 l/m 16,4 km/h (3 Bft) 0 min
31.05.2013 18:57 21,8 C 9,6 C 9,9 C 99 % 7 % 995 hPa 0,0 l/m 13,1 km/h (3 Bft) 0 min
31.05.2013 19:00 21,8 C 9,6 C 9,9 C 99 % 6 % 995 hPa 0,0 l/m 9,3 km/h (2 Bft) 0 min
31.05.2013 19:03 21,8 C 9,6 C 9,9 C 99 % 6 % 995 hPa 0,3 l/m 11,4 km/h (2 Bft) 0 min
31.05.2013 19:06 21,8 C 9,6 C 9,9 C 99 % 8 % 995 hPa 0,0 l/m 8,1 km/h (2 Bft) 0 min
31.05.2013 19:09 21,7 C 9,6 C 10,1 C 99 % 10 % 995 hPa 0,0 l/m 11,0 km/h (2 Bft) 0 min
31.05.2013 19:12 21,8 C 9,6 C 10,2 C 99 % 13 % 995 hPa 0,0 l/m 6,6 km/h (2 Bft) 0 min
31.05.2013 19:15 21,8 C 9,6 C 10,3 C 99 % 14 % 995 hPa 0,0 l/m 3,0 km/h (1 Bft) 0 min
31.05.2013 19:18 21,8 C 9,6 C 10,1 C 99 % 11 % 995 hPa 0,0 l/m 6,2 km/h (2 Bft) 0 min
31.05.2013 19:21 21,8 C 9,6 C 10,1 C 99 % 9 % 995 hPa 0,0 l/m 9,9 km/h (2 Bft) 0 min
31.05.2013 19:24 21,8 C 9,6 C 10,1 C 99 % 9 % 995 hPa 0,0 l/m 3,9 km/h (1 Bft) 0 min
31.05.2013 19:27 21,8 C 9,6 C 10,0 C 99 % 7 % 995 hPa 0,0 l/m 12,2 km/h (2 Bft) 0 min
31.05.2013 19:30 21,8 C 9,6 C 10,0 C 99 % 5 % 995 hPa 0,0 l/m 9,1 km/h (2 Bft) 0 min
31.05.2013 19:33 21,8 C 9,6 C 9,8 C 99 % 4 % 995 hPa 0,0 l/m 8,3 km/h (2 Bft) 0 min
31.05.2013 19:36 21,8 C 9,6 C 9,9 C 99 % 4 % 995 hPa 0,0 l/m 6,7 km/h (2 Bft) 0 min
31.05.2013 19:39 21,8 C 9,6 C 10,0 C 99 % 4 % 995 hPa 0,0 l/m 9,1 km/h (2 Bft) 0 min
31.05.2013 19:42 21,8 C 9,6 C 10,0 C 99 % 4 % 995 hPa 0,0 l/m 4,2 km/h (1 Bft) 0 min
31.05.2013 19:45 21,8 C 9,6 C 10,0 C 99 % 4 % 995 hPa 0,0 l/m 6,2 km/h (2 Bft) 0 min
31.05.2013 19:48 21,8 C 9,6 C 10,0 C 99 % 3 % 995 hPa 0,0 l/m 6,2 km/h (2 Bft) 0 min
31.05.2013 19:51 21,7 C 9,6 C 10,0 C 99 % 4 % 995 hPa 0,0 l/m 5,6 km/h (1 Bft) 0 min
31.05.2013 19:54 21,8 C 9,6 C 10,0 C 99 % 5 % 995 hPa 0,0 l/m 5,3 km/h (1 Bft) 0 min
31.05.2013 19:57 21,8 C 9,6 C 10,0 C 99 % 5 % 995 hPa 0,0 l/m 2,8 km/h (1 Bft) 0 min
31.05.2013 20:00 21,8 C 9,6 C 10,0 C 99 % 5 % 995 hPa 0,0 l/m 4,1 km/h (1 Bft) 0 min
31.05.2013 20:03 21,8 C 9,6 C 10,0 C 99 % 4 % 995 hPa 0,0 l/m 4,1 km/h (1 Bft) 0 min
31.05.2013 20:06 21,8 C 9,6 C 10,0 C 99 % 3 % 995 hPa 0,0 l/m 0,6 km/h (0 Bft) 0 min
31.05.2013 20:09 21,7 C 9,6 C 10,0 C 99 % 3 % 995 hPa 0,0 l/m 5,8 km/h (2 Bft) 0 min
31.05.2013 20:12 21,7 C 9,6 C 9,9 C 99 % 3 % 995 hPa 0,0 l/m 3,7 km/h (1 Bft) 0 min
31.05.2013 20:15 21,8 C 9,6 C 9,9 C 99 % 3 % 995 hPa 0,0 l/m 3,6 km/h (1 Bft) 0 min
31.05.2013 20:18 21,7 C 9,6 C 10,0 C 99 % 3 % 995 hPa 0,0 l/m 3,8 km/h (1 Bft) 0 min
31.05.2013 20:21 21,8 C 9,6 C 10,0 C 99 % 2 % 995 hPa 0,0 l/m 1,1 km/h (1 Bft) 0 min
31.05.2013 20:24 21,8 C 9,6 C 10,0 C 99 % 1 % 995 hPa 0,0 l/m 0,2 km/h (0 Bft) 0 min
31.05.2013 20:27 21,8 C 9,6 C 9,9 C 99 % 1 % 995 hPa 0,0 l/m 0,5 km/h (0 Bft) 0 min
31.05.2013 20:30 21,7 C 9,5 C 9,9 C 99 % 1 % 996 hPa 0,0 l/m 0,6 km/h (0 Bft) 0 min
31.05.2013 20:33 21,8 C 9,5 C 9,9 C 99 % 1 % 996 hPa 0,0 l/m 0,8 km/h (0 Bft) 0 min
31.05.2013 20:36 21,7 C 9,5 C 9,9 C 99 % 0 % 996 hPa 0,0 l/m 0,3 km/h (0 Bft) 0 min
31.05.2013 20:39 21,8 C 9,5 C 9,9 C 99 % 0 % 996 hPa 0,0 l/m 0,3 km/h (0 Bft) 0 min
31.05.2013 20:42 21,8 C 9,5 C 9,8 C 99 % 0 % 996 hPa 0,0 l/m 3,6 km/h (1 Bft) 0 min
31.05.2013 20:45 21,8 C 9,5 C 9,8 C 99 % 0 % 996 hPa 0,0 l/m 5,6 km/h (1 Bft) 0 min
31.05.2013 20:48 21,8 C 9,5 C 9,8 C 99 % 0 % 996 hPa 0,0 l/m 3,2 km/h (1 Bft) 0 min
31.05.2013 20:51 21,8 C 9,5 C 9,9 C 99 % 0 % 996 hPa 0,0 l/m 2,4 km/h (1 Bft) 0 min
31.05.2013 20:54 21,8 C 9,5 C 9,8 C 99 % 0 % 996 hPa 0,0 l/m 3,0 km/h (1 Bft) 0 min
31.05.2013 20:57 21,8 C 9,5 C 9,9 C 99 % 0 % 996 hPa 0,0 l/m 0,0 km/h (0 Bft) 0 min
31.05.2013 21:00 21,8 C 9,5 C 10,0 C 99 % 0 % 996 hPa 0,0 l/m 0,0 km/h (0 Bft) 0 min
31.05.2013 21:03 21,8 C 9,5 C 10,0 C 99 % 0 % 996 hPa 0,0 l/m 0,0 km/h (0 Bft) 0 min
31.05.2013 21:06 21,8 C 9,5 C 9,9 C 99 % 0 % 996 hPa 0,0 l/m 0,6 km/h (0 Bft) 0 min
31.05.2013 21:09 21,8 C 9,5 C 9,9 C 99 % 0 % 996 hPa 0,0 l/m 3,3 km/h (1 Bft) 0 min
31.05.2013 21:12 21,9 C 9,5 C 9,8 C 99 % 0 % 996 hPa 0,0 l/m 0,1 km/h (0 Bft) 0 min
31.05.2013 21:15 21,8 C 9,5 C 9,8 C 99 % 0 % 996 hPa 0,0 l/m 0,0 km/h (0 Bft) 0 min
31.05.2013 21:18 21,9 C 9,5 C 9,8 C 99 % 0 % 996 hPa 0,0 l/m 0,4 km/h (0 Bft) 0 min
31.05.2013 21:21 21,9 C 9,5 C 9,8 C 99 % 0 % 996 hPa 0,0 l/m 0,3 km/h (0 Bft) 0 min
31.05.2013 21:24 21,9 C 9,5 C 9,8 C 99 % 0 % 996 hPa 0,0 l/m 0,0 km/h (0 Bft) 0 min
31.05.2013 21:27 21,9 C 9,5 C 9,8 C 99 % 0 % 996 hPa 0,0 l/m 0,0 km/h (0 Bft) 0 min
31.05.2013 21:30 22,0 C 9,5 C 9,8 C 99 % 0 % 996 hPa 0,0 l/m 0,0 km/h (0 Bft) 0 min
31.05.2013 21:33 22,0 C 9,5 C 9,8 C 99 % 0 % 996 hPa 0,0 l/m 0,0 km/h (0 Bft) 0 min
31.05.2013 21:36 22,0 C 9,5 C 9,8 C 99 % 0 % 996 hPa 0,0 l/m 0,0 km/h (0 Bft) 0 min
31.05.2013 21:39 22,0 C 9,5 C 9,8 C 99 % 0 % 996 hPa 0,0 l/m 0,0 km/h (0 Bft) 0 min
31.05.2013 21:42 22,0 C 9,5 C 9,8 C 99 % 0 % 996 hPa 0,0 l/m 0,0 km/h (0 Bft) 0 min
31.05.2013 21:45 22,0 C 9,5 C 9,8 C 99 % 0 % 996 hPa 0,0 l/m 0,0 km/h (0 Bft) 0 min
31.05.2013 21:48 22,0 C 9,5 C 9,8 C 99 % 0 % 996 hPa 0,0 l/m 0,0 km/h (0 Bft) 0 min
31.05.2013 21:51 22,0 C 9,5 C 9,8 C 99 % 0 % 996 hPa 0,0 l/m 0,0 km/h (0 Bft) 0 min
31.05.2013 21:54 22,0 C 9,5 C 9,8 C 99 % 0 % 996 hPa 0,0 l/m 0,0 km/h (0 Bft) 0 min
31.05.2013 21:57 22,0 C 9,5 C 9,6 C 99 % 0 % 996 hPa 0,0 l/m 0,0 km/h (0 Bft) 0 min
31.05.2013 22:00 22,0 C 9,5 C 9,4 C 99 % 0 % 996 hPa 0,0 l/m 0,0 km/h (0 Bft) 0 min
31.05.2013 22:03 22,0 C 9,4 C 9,5 C 99 % 0 % 996 hPa 0,0 l/m 0,0 km/h (0 Bft) 0 min
31.05.2013 22:06 22,0 C 9,4 C 9,5 C 99 % 0 % 997 hPa 0,0 l/m 0,0 km/h (0 Bft) 0 min
31.05.2013 22:09 22,0 C 9,4 C 9,7 C 99 % 0 % 997 hPa 0,0 l/m 0,1 km/h (0 Bft) 0 min
31.05.2013 22:12 22,0 C 9,4 C 9,7 C 99 % 0 % 997 hPa 0,0 l/m 0,0 km/h (0 Bft) 0 min
31.05.2013 22:15 22,0 C 9,4 C 9,7 C 99 % 0 % 997 hPa 0,0 l/m 0,0 km/h (0 Bft) 0 min
31.05.2013 22:18 22,0 C 9,4 C 9,8 C 99 % 0 % 997 hPa 0,0 l/m 0,0 km/h (0 Bft) 0 min
31.05.2013 22:21 22,0 C 9,4 C 9,7 C 99 % 0 % 997 hPa 0,0 l/m 0,0 km/h (0 Bft) 0 min
31.05.2013 22:24 22,0 C 9,4 C 9,7 C 99 % 0 % 997 hPa 0,0 l/m 0,0 km/h (0 Bft) 0 min
31.05.2013 22:27 22,0 C 9,4 C 9,7 C 99 % 0 % 997 hPa 0,0 l/m 0,0 km/h (0 Bft) 0 min
31.05.2013 22:30 22,0 C 9,4 C 9,8 C 99 % 0 % 997 hPa 0,0 l/m 0,0 km/h (0 Bft) 0 min
31.05.2013 22:33 22,0 C 9,4 C 9,8 C 99 % 0 % 997 hPa 0,0 l/m 0,0 km/h (0 Bft) 0 min
31.05.2013 22:36 22,0 C 9,4 C 9,8 C 99 % 0 % 997 hPa 0,0 l/m 0,0 km/h (0 Bft) 0 min
31.05.2013 22:39 22,0 C 9,4 C 9,8 C 99 % 0 % 997 hPa 0,0 l/m 0,0 km/h (0 Bft) 0 min
31.05.2013 22:42 22,0 C 9,4 C 9,7 C 99 % 0 % 997 hPa 0,0 l/m 0,0 km/h (0 Bft) 0 min
31.05.2013 22:45 22,0 C 9,4 C 9,7 C 99 % 0 % 997 hPa 0,0 l/m 0,0 km/h (0 Bft) 0 min
31.05.2013 22:48 22,0 C 9,3 C 9,7 C 99 % 0 % 997 hPa 0,0 l/m 0,0 km/h (0 Bft) 0 min
31.05.2013 22:51 22,0 C 9,3 C 9,8 C 99 % 0 % 997 hPa 0,0 l/m 0,0 km/h (0 Bft) 0 min
31.05.2013 22:54 22,0 C 9,3 C 9,7 C 99 % 0 % 997 hPa 0,0 l/m 0,0 km/h (0 Bft) 0 min
31.05.2013 22:57 22,0 C 9,3 C 9,5 C 99 % 0 % 997 hPa 0,0 l/m 0,0 km/h (0 Bft) 0 min
31.05.2013 23:00 22,0 C 9,3 C 9,5 C 99 % 0 % 997 hPa 0,0 l/m 0,0 km/h (0 Bft) 0 min
31.05.2013 23:03 22,0 C 9,3 C 9,6 C 99 % 0 % 997 hPa 0,0 l/m 0,0 km/h (0 Bft) 0 min
31.05.2013 23:06 22,0 C 9,3 C 9,7 C 99 % 0 % 997 hPa 0,0 l/m 0,0 km/h (0 Bft) 0 min
31.05.2013 23:09 21,9 C 9,3 C 9,7 C 99 % 0 % 997 hPa 0,0 l/m 0,0 km/h (0 Bft) 0 min
31.05.2013 23:12 22,0 C 9,3 C 9,8 C 99 % 0 % 998 hPa 0,0 l/m 0,0 km/h (0 Bft) 0 min
31.05.2013 23:15 22,0 C 9,3 C 9,6 C 99 % 0 % 998 hPa 0,0 l/m 0,0 km/h (0 Bft) 0 min
31.05.2013 23:18 21,9 C 9,3 C 9,6 C 99 % 0 % 998 hPa 0,0 l/m 0,0 km/h (0 Bft) 0 min
31.05.2013 23:21 21,9 C 9,3 C 9,6 C 99 % 0 % 998 hPa 0,0 l/m 0,0 km/h (0 Bft) 0 min
31.05.2013 23:24 21,9 C 9,3 C 9,7 C 99 % 0 % 998 hPa 0,0 l/m 0,0 km/h (0 Bft) 0 min
31.05.2013 23:27 21,9 C 9,3 C 9,8 C 99 % 0 % 998 hPa 0,0 l/m 0,0 km/h (0 Bft) 0 min
31.05.2013 23:30 21,9 C 9,3 C 9,7 C 99 % 0 % 998 hPa 0,0 l/m 0,0 km/h (0 Bft) 0 min
31.05.2013 23:33 21,8 C 9,3 C 9,7 C 99 % 0 % 998 hPa 0,0 l/m 0,0 km/h (0 Bft) 0 min
31.05.2013 23:36 21,8 C 9,3 C 9,7 C 99 % 0 % 998 hPa 0,0 l/m 0,0 km/h (0 Bft) 0 min
31.05.2013 23:39 21,8 C 9,3 C 9,7 C 99 % 0 % 998 hPa 0,0 l/m 0,0 km/h (0 Bft) 0 min
31.05.2013 23:42 21,8 C 9,3 C 9,7 C 99 % 0 % 998 hPa 0,0 l/m 0,0 km/h (0 Bft) 0 min
31.05.2013 23:45 21,8 C 9,3 C 9,8 C 99 % 0 % 998 hPa 0,0 l/m 0,0 km/h (0 Bft) 0 min
31.05.2013 23:48 21,8 C 9,3 C 9,7 C 99 % 0 % 998 hPa 0,0 l/m 0,3 km/h (0 Bft) 0 min
31.05.2013 23:51 21,8 C 9,3 C 9,6 C 99 % 0 % 998 hPa 0,0 l/m 0,3 km/h (0 Bft) 0 min
31.05.2013 23:54 21,8 C 9,3 C 9,6 C 99 % 0 % 998 hPa 0,0 l/m 0,7 km/h (0 Bft) 0 min
31.05.2013 23:57 21,8 C 9,3 C 9,5 C 99 % 0 % 998 hPa 0,0 l/m 0,0 km/h (0 Bft) 0 min
_ Min-Zeit 11:15 07:12 07:06 00:00 - 04:51 - 20:57 -
Minimum _ 17,2 C 8,1 C 8,6 C 99 % - 992 hPa - 0,0 km/h (0 Bft) -
_ Max-Zeit 21:30 16:39 15:03 00:00 15:03 23:12 00:18 12:36 00:00
Maximum _ 22,0 C 10,2 C 10,8 C 99 % 45 % 998 hPa 0,3 l/m 29,3 km/h
W-NW (5 Bft)
0 min
Durchschnitt _ 21,3 C 9,0 C 9,4 C 99 % #0 min. 994 hPa #17,4 l/m 12,2 km/h (2 Bft) #0 min.